www.pogodaiklimat.ru

Погода и климат >> Архив погоды >> Боливия >> Yacuiba


ПОГОДА в Yacuiba

  • Прогноз погоды в Yacuiba
  • Монитор погоды в Yacuiba
  • Климат города

АРХИВ ПОГОДЫ в Yacuiba

Время (UTC), дата Ветер
(напр.,м/с)
 
Видим.   Явления Облачность Т
(С)
Тd
(С)
f
(%)
Тe
(С)
Тes
(С)
Комфортность P
(гПа)
Po
(гПа)
Тmin
(С)
Tmax
(С)
R
(мм)
R24
(мм)
S
(см)
12 18.02 штиль 0 20 км 1/1 700 м
[Cu hum]
+22.6 +20.5 88 +29 +35 очень
душно
1007.8 936.2 +20.0 6
15 18.02 С 4 20 км 3/3 700 м
[Cu hum]
+27.8 +22.7 74 +37 +46 очень
душно
1005.6 933.1
18 18.02 С 4 20 км 9/9 700 м
[Cu med, cong]
+27.1 +23.0 78 +36 +37 очень
душно
1003.2 930.5
21 18.02 штиль 0 20 км 9/9 700 м
[Sc]
+27.6 +23.3 77 +37 +38 очень
душно
1001.6 928.4 +29.4
12 19.02 штиль 0 20 км 3/1 700 м
[Sc Ci fib]
+25.2 +23.5 90 +34 +40 очень
душно
1002.5 930.7 +20.1 4
15 19.02 штиль 0 20 км 5/5 700 м
[Cu hum]
+30.8 +25.3 73 +45 +58 опасность
перегрева
1001.7 931.2
18 19.02 Ю 4 20 км 5/5 700 м
[Cu hum]
+32.3 +25.8 69 +48 +53 опасность
перегрева
1000.5 930.4
21 19.02 штиль 0 20 км 8/4 700 м
[Cb calv As op]
+29.9 +24.2 72 +42 +43 опасность
перегрева
1000.3 929.9 +33.5
15 20.02 штиль 0 20 км 6/5 700 м
[Cu hum Ci fib]
+29.7 +23.5 69 +40 +53 опасность
солнечного
удара
1006.8 935.7
18 20.02 штиль 0 20 км 6/6 700 м
[Cu hum]
+31.3 +23.0 61 +41 +51 опасность
перегрева
1004.4 933.8
21 20.02 штиль 0 20 км 6/6 700 м
[Cu hum]
+29.7 +23.5 69 +40 +42 очень
душно
1003.4 932.5 +33.1
12 21.02 ЮЗ 3 15 км в посл. час дождь 10/5 450 м
[Sc As op]
+20.8 +20.5 98 +26 +26 душно 1016.7 942.8 +18.4 28
15 21.02 ЮЗ 4 3000 м слабый дождь 10/6 180 м
[Frnb As op]
+19.2 +19.1 99 +21 +22 комфорт 1020.1 945.6
18 21.02 ЮЗ 4 20 км в посл. час дождь 10/6 500 м
[Sc As op]
+20.4 +18.9 91 +24 +25 комфорт 1018.3 944.2 19
21 21.02 штиль 0 20 км 8/3 700 м
[Sc Ac trans Ci fib]
+23.7 +21.6 88 +30 +32 очень
душно
1013.3 940.3 +24.1
12 22.02 штиль 0 20 км 4/0
[Ci fib]
+20.6 +19.1 91 +24 +30 комфорт 1018.0 944.0 +14.8 19
15 22.02 штиль 0 20 км 4/4 700 м
[Cu hum]
+27.4 +20.4 66 +34 +49 очень
душно
1016.8 944.5
18 22.02 В 4 20 км 4/4 700 м
[Cu hum]
+29.2 +20.8 61 +36 +43 очень
душно
1014.0 942.3
21 22.02 В 4 20 км 6/6 700 м
[Cu hum]
+27.1 +20.1 66 +33 +34 очень
душно
1012.1 940.0 +30.6
12 23.02 штиль 0 20 км ясно +22.3 +19.2 83 +28 +35 душно 1014.3 940.9 +15.4
15 23.02 СВ 4 20 км 4/4 700 м
[Cu hum]
+27.7 +21.2 68 +35 +43 очень
душно
1012.1 940.2
18 23.02 СВ 5 20 км 5/5 700 м
[Cu hum]
+29.5 +21.3 61 +37 +42 очень
душно
1009.1 937.8
21 23.02 В 3 20 км 3/3 700 м
[Cu hum]
+29.0 +20.0 58 +35 +37 очень
душно
1007.8 936.5 +31.2
12 24.02 штиль 0 20 км 9/0 2000 м
[As op]
+21.9 +19.8 88 +28 +29 душно 1014.4 940.9 +18.3
15 24.02 штиль 0 20 км 9/0 2000 м
[As op]
+27.0 +20.5 68 +34 +41 очень
душно
1013.8 941.6
18 24.02 штиль 0 20 км 9/4 700 м
[Cu hum Ac trans Ci fib]
+27.8 +20.0 63 +34 +42 очень
душно
1012.0 940.1
21 24.02 штиль 0 20 км 9/5 700 м
[Sc diur, vesp As op]
+25.6 +20.3 73 +32 +32 очень
душно
1011.2 938.8 +29.4

 

Местоположение метеостанции Yacuiba (Боливия): широта -21.95 долгота -63.65 высота над уровнем моря 645 м.

В архиве по умолчанию представлена погода в Yacuiba за последнюю неделю. Архивные данные за месяц целиком и за предыдущие месяцы, начиная с января 2011 года, Вы можете получить, выбрав интересующий диапазон дат из раскрывающегося списка и нажав кнопку "Ввод!".

Внимание! Время в таблицах - всемирное. Для получения местного времени необходимо прибавить поправку, которая в Yacuiba равна -4 ч.

Смотрите также архив погоды в соседних городах и на ближайших метеорологических станциях:

Погода в Tartagal (Аргентина) (76 км)
Погода в Villamontes (Боливия) (81 км)
Погода в Bermejo (Боливия) (113 км)
Погода в Tarija (Боливия) (117 км)
Погода в San Ramon de la Nueva Oran (Аргентина) (150 км)
Погода в La Quiaca (Аргентина) (202 км)
Погода в Camiri (Боливия) (217 км)
Погода в Prats-Gil (Парагвай) (236 км)
Погода в Monteagudo (Боливия) (243 км)
Погода в San Salvador de Jujuy (Аргентина) (307 км)

Пояснения к столбцам:

Ветер - указаны скорость ветра в м/с - средняя за 10 мин, порывы в срок и между сроками (в фигурных скобках) и направление, откуда дует ветер: С - северный, СВ - северо-восточный, В - восточный, ЮВ - юго-восточный, Ю - южный, ЮЗ - юго-западный, З - западный, СЗ - северо-западный.
Видимость - горизонтальная дальность видимости в метрах или километрах. При видимости от 1 до 10 км при отсутствии осадков обычно наблюдается дымка, при ухудшении видимости до 1 км и менее - туман. В сухую погоду видимость может ухудшаться дымом, пылью или мглою.
Явления - указаны атмосферные явления, наблюдавшиеся в срок или в последний час перед сроком; фигурными скобками обозначены явления, наблюдавшиеся между сроками (за 1-3 часа до срока); квадратными скобками обозначены град или гололедные отложения с указанием их диаметра в мм.
Облачность - указаны через наклонную черту общая и нижняя облачность в баллах и высота нижней границы облаков в метрах; квадратными скобками обозначены формы облаков: Ci - перистые, Cs - перисто-слоистые, Cc - перисто-кучевые, Ac - высококучевые, As - высокослоистые, Sc - слоисто-кучевые, Ns - слоисто-дождевые, Cu - кучевые, Cb - кучево-дождевые. Подробнее классификацию облаков см. в Атласе облаков (PDF).
T - Температура воздуха - температура, измеренная на высоте 2 м над землей.
Td - Температура точки росы - температура, при понижении до которой содержащийся в воздухе водяной пар достигнет насыщения.
f - Относительная влажность воздуха - влажноcть воздуха, измеренная на высоте 2 м над землей.
Te - Эффективная температура - температура, которую ощущает одетый по сезону человек в тени. Характеристика душности погоды. При расчете учитывается влияние влажности воздуха и скорости ветра на теплоощущения человека.
Tes - Эффективная температура на солнце - температура, которую ощущает человек, с поправкой на солнечный нагрев. Характеристика знойности погоды. Зависит от высоты солнца над горизонтом, облачности и скорости ветра. Ночью, в пасмурную погоду, а также при ветре 12 м/с и более поправка равна нулю.
P - Атмосферное давление - приведенное к уровню моря атмосферное давление.
Po - Атмосферное давление - измеренное на уровне метеостанции атмосферное давление.
Tmin - Минимальная температура - минимум температуры воздуха на высоте 2 м над землей.
Tmax - Максимальная температура - максимум температуры воздуха на высоте 2 м над землей.
R - Количество осадков - Количество выпавших осадков за период времени, мм. При наведении курсора мыши на число - период времени, за который выпало указанное количество осадков.
R24 - Количество осадков - Количество выпавших осадков за 24 часа, мм.
S - Снежный покров - Высота снежного покрова, см. При наведении курсора мыши на число - состояние снежного покрова и степень покрытия местности в баллах.